Time,TemperatureF,DewpointF,PressureIn,WindDirection,WindDirectionDegrees,WindSpeedMPH,WindSpeedGustMPH,Humidity,HourlyPrecipIn,Conditions,Clouds,dailyrainin,SoftwareType,DateUTC
2013-06-14 00:11:00,66.8,55.0,29.57,West,275,4.0,14.0,67,0.00,,,0.00,weatherlink.com 1.10,2013-06-14 04:11:00,
2013-06-14 00:26:00,66.5,56.0,29.58,WSW,246,7.0,11.0,69,0.00,,,0.00,weatherlink.com 1.10,2013-06-14 04:26:00,
2013-06-14 00:42:00,66.3,55.0,29.58,WNW,285,3.0,11.0,68,0.00,,,0.00,weatherlink.com 1.10,2013-06-14 04:42:00,
2013-06-14 00:57:00,66.2,56.0,29.59,WNW,302,7.0,13.0,69,0.00,,,0.00,weatherlink.com 1.10,2013-06-14 04:57:00,
2013-06-14 01:12:00,66.0,55.0,29.58,WNW,282,4.0,12.0,68,0.00,,,0.00,weatherlink.com 1.10,2013-06-14 05:12:00,
2013-06-14 01:27:00,65.8,55.0,29.59,West,274,5.0,13.0,68,0.00,,,0.00,weatherlink.com 1.10,2013-06-14 05:27:00,
2013-06-14 01:42:00,65.6,55.0,29.59,NW,306,3.0,9.0,69,0.00,,,0.00,weatherlink.com 1.10,2013-06-14 05:42:00,
2013-06-14 01:57:00,65.4,55.0,29.60,WNW,296,5.0,14.0,69,0.00,,,0.00,weatherlink.com 1.10,2013-06-14 05:57:00,
2013-06-14 02:12:00,65.3,54.0,29.60,West,260,3.0,15.0,68,0.00,,,0.00,weatherlink.com 1.10,2013-06-14 06:12:00,
2013-06-14 02:27:00,65.0,54.0,29.61,WNW,289,5.0,10.0,68,0.00,,,0.00,weatherlink.com 1.10,2013-06-14 06:27:00,
2013-06-14 02:42:00,64.9,54.0,29.61,WNW,287,1.0,10.0,69,0.00,,,0.00,weatherlink.com 1.10,2013-06-14 06:42:00,
2013-06-14 02:57:00,64.8,54.0,29.61,WNW,283,10.0,13.0,68,0.00,,,0.00,weatherlink.com 1.10,2013-06-14 06:57:00,
2013-06-14 03:12:00,64.7,54.0,29.62,West,267,5.0,9.0,68,0.00,,,0.00,weatherlink.com 1.10,2013-06-14 07:12:00,
2013-06-14 03:27:00,64.5,55.0,29.63,West,262,13.0,13.0,70,0.00,,,0.00,weatherlink.com 1.10,2013-06-14 07:27:00,
2013-06-14 03:42:00,64.3,54.0,29.64,WNW,294,0.0,10.0,69,0.00,,,0.00,weatherlink.com 1.10,2013-06-14 07:42:00,
2013-06-14 03:57:00,64.1,54.0,29.64,ENE,71,1.0,8.0,70,0.00,,,0.00,weatherlink.com 1.10,2013-06-14 07:57:00,
2013-06-14 04:12:00,64.1,54.0,29.65,WNW,286,1.0,14.0,70,0.00,,,0.00,weatherlink.com 1.10,2013-06-14 08:12:00,
2013-06-14 04:27:00,63.9,54.0,29.66,NNE,28,2.0,7.0,70,0.00,,,0.00,weatherlink.com 1.10,2013-06-14 08:27:00,
2013-06-14 04:42:00,63.7,54.0,29.66,SSW,211,0.0,6.0,71,0.00,,,0.00,weatherlink.com 1.10,2013-06-14 08:42:00,
2013-06-14 04:57:00,63.6,54.0,29.67,West,279,2.0,4.0,71,0.00,,,0.00,weatherlink.com 1.10,2013-06-14 08:57:00,
2013-06-14 05:12:00,63.4,55.0,29.68,West,266,2.0,3.0,73,0.00,,,0.00,weatherlink.com 1.10,2013-06-14 09:12:00,
2013-06-14 05:27:00,63.2,54.0,29.68,West,279,2.0,7.0,73,0.00,,,0.00,weatherlink.com 1.10,2013-06-14 09:27:00,
2013-06-14 05:42:00,63.0,54.0,29.69,West,275,1.0,7.0,73,0.00,,,0.00,weatherlink.com 1.10,2013-06-14 09:42:00,
2013-06-14 05:57:00,62.8,54.0,29.69,West,259,3.0,4.0,74,0.00,,,0.00,weatherlink.com 1.10,2013-06-14 09:57:00,
2013-06-14 06:12:00,62.5,55.0,29.70,WNW,300,3.0,7.0,75,0.00,,,0.00,weatherlink.com 1.10,2013-06-14 10:12:00,
2013-06-14 06:27:00,62.2,54.0,29.70,West,281,3.0,7.0,75,0.00,,,0.00,weatherlink.com 1.10,2013-06-14 10:27:00,
2013-06-14 06:42:00,62.0,54.0,29.71,WNW,298,2.0,10.0,75,0.00,,,0.00,weatherlink.com 1.10,2013-06-14 10:42:00,
2013-06-14 06:57:00,61.9,54.0,29.72,WNW,297,3.0,7.0,75,0.00,,,0.00,weatherlink.com 1.10,2013-06-14 10:57:00,
2013-06-14 07:12:00,61.9,54.0,29.72,NW,304,3.0,9.0,76,0.00,,,0.00,weatherlink.com 1.10,2013-06-14 11:12:00,
2013-06-14 07:28:00,62.0,54.0,29.73,WNW,293,7.0,10.0,75,0.00,,,0.00,weatherlink.com 1.10,2013-06-14 11:28:00,
2013-06-14 07:43:00,62.2,54.0,29.75,WNW,294,5.0,10.0,74,0.00,,,0.00,weatherlink.com 1.10,2013-06-14 11:43:00,
2013-06-14 07:58:00,62.5,55.0,29.75,West,273,5.0,10.0,75,0.00,,,0.00,weatherlink.com 1.10,2013-06-14 11:58:00,
2013-06-14 08:13:00,64.4,56.0,29.75,WNW,300,4.0,11.0,73,0.00,,,0.00,weatherlink.com 1.10,2013-06-14 12:13:00,
2013-06-14 08:28:00,66.6,56.0,29.76,West,280,3.0,11.0,69,0.00,,,0.00,weatherlink.com 1.10,2013-06-14 12:28:00,
2013-06-14 08:43:00,67.1,56.0,29.77,West,277,4.0,11.0,68,0.00,,,0.00,weatherlink.com 1.10,2013-06-14 12:43:00,
2013-06-14 08:58:00,67.8,56.0,29.78,WNW,286,4.0,13.0,65,0.00,,,0.00,weatherlink.com 1.10,2013-06-14 12:58:00,
2013-06-14 09:13:00,67.8,54.0,29.79,West,275,2.0,8.0,62,0.00,,,0.00,weatherlink.com 1.10,2013-06-14 13:13:00,
2013-06-14 09:28:00,67.2,55.0,29.79,WNW,286,7.0,10.0,65,0.00,,,0.00,weatherlink.com 1.10,2013-06-14 13:28:00,
2013-06-14 09:43:00,67.2,55.0,29.80,WNW,286,2.0,12.0,65,0.00,,,0.00,weatherlink.com 1.10,2013-06-14 13:43:00,
2013-06-14 09:58:00,67.0,55.0,29.80,West,277,0.0,6.0,66,0.00,,,0.00,weatherlink.com 1.10,2013-06-14 13:58:00,
2013-06-14 10:13:00,68.4,55.0,29.81,West,275,1.0,7.0,63,0.00,,,0.00,weatherlink.com 1.10,2013-06-14 14:13:00,
2013-06-14 10:28:00,71.0,56.0,29.81,WNW,286,3.0,12.0,60,0.00,,,0.00,weatherlink.com 1.10,2013-06-14 14:28:00,
2013-06-14 10:43:00,70.5,56.0,29.81,East,99,1.0,6.0,61,0.00,,,0.00,weatherlink.com 1.10,2013-06-14 14:43:00,
2013-06-14 10:58:00,71.7,55.0,29.82,West,278,2.0,8.0,55,0.00,,,0.00,weatherlink.com 1.10,2013-06-14 14:58:00,
2013-06-14 11:13:00,71.5,55.0,29.82,East,88,2.0,7.0,56,0.00,,,0.00,weatherlink.com 1.10,2013-06-14 15:13:00,
2013-06-14 11:28:00,72.5,56.0,29.82,West,265,4.0,9.0,57,0.00,,,0.00,weatherlink.com 1.10,2013-06-14 15:28:00,
2013-06-14 11:43:00,72.1,55.0,29.82,ESE,109,1.0,7.0,56,0.00,,,0.00,weatherlink.com 1.10,2013-06-14 15:43:00,
2013-06-14 11:58:00,73.7,58.0,29.82,WSW,252,3.0,7.0,58,0.00,,,0.00,weatherlink.com 1.10,2013-06-14 15:58:00,
2013-06-14 12:13:00,74.6,57.0,29.82,NNE,25,1.0,8.0,54,0.00,,,0.00,weatherlink.com 1.10,2013-06-14 16:13:00,
2013-06-14 12:28:00,75.8,56.0,29.82,WNW,285,4.0,9.0,50,0.00,,,0.00,weatherlink.com 1.10,2013-06-14 16:28:00,
2013-06-14 12:43:00,74.6,57.0,29.82,WNW,289,5.0,8.0,54,0.00,,,0.00,weatherlink.com 1.10,2013-06-14 16:43:00,
2013-06-14 12:58:00,75.0,57.0,29.83,WSW,257,1.0,8.0,53,0.00,,,0.00,weatherlink.com 1.10,2013-06-14 16:58:00,
2013-06-14 13:13:00,74.5,56.0,29.83,WNW,290,0.0,9.0,53,0.00,,,0.00,weatherlink.com 1.10,2013-06-14 17:13:00,
2013-06-14 13:28:00,75.4,58.0,29.82,West,279,5.0,6.0,55,0.00,,,0.00,weatherlink.com 1.10,2013-06-14 17:28:00,
2013-06-14 13:43:00,76.0,59.0,29.82,WNW,302,2.0,9.0,55,0.00,,,0.00,weatherlink.com 1.10,2013-06-14 17:43:00,
2013-06-14 13:58:00,75.4,57.0,29.82,NNW,328,2.0,10.0,53,0.00,,,0.00,weatherlink.com 1.10,2013-06-14 17:58:00,
2013-06-14 14:13:00,75.2,56.0,29.82,West,279,9.0,11.0,52,0.00,,,0.00,weatherlink.com 1.10,2013-06-14 18:13:00,
2013-06-14 14:29:00,76.0,56.0,29.82,WNW,303,1.0,7.0,50,0.00,,,0.00,weatherlink.com 1.10,2013-06-14 18:29:00,
2013-06-14 14:44:00,77.0,56.0,29.82,WNW,292,3.0,11.0,48,0.00,,,0.00,weatherlink.com 1.10,2013-06-14 18:44:00,
2013-06-14 14:59:00,77.6,56.0,29.82,WNW,286,3.0,9.0,48,0.00,,,0.00,weatherlink.com 1.10,2013-06-14 18:59:00,
2013-06-14 15:14:00,77.0,56.0,29.81,West,271,5.0,8.0,48,0.00,,,0.00,weatherlink.com 1.10,2013-06-14 19:14:00,
2013-06-14 15:29:00,77.8,54.0,29.81,ENE,76,2.0,13.0,44,0.00,,,0.00,weatherlink.com 1.10,2013-06-14 19:29:00,
2013-06-14 15:44:00,78.9,56.0,29.81,WNW,290,2.0,10.0,45,0.00,,,0.00,weatherlink.com 1.10,2013-06-14 19:44:00,
2013-06-14 15:59:00,79.3,54.0,29.81,NW,317,3.0,9.0,42,0.00,,,0.00,weatherlink.com 1.10,2013-06-14 19:59:00,
2013-06-14 16:14:00,78.5,55.0,29.81,West,279,8.0,9.0,45,0.00,,,0.00,weatherlink.com 1.10,2013-06-14 20:14:00,
2013-06-14 16:29:00,77.6,54.0,29.81,WSW,258,1.0,10.0,44,0.00,,,0.00,weatherlink.com 1.10,2013-06-14 20:29:00,
2013-06-14 16:44:00,77.4,57.0,29.81,WNW,288,6.0,6.0,49,0.00,,,0.00,weatherlink.com 1.10,2013-06-14 20:44:00,
2013-06-14 17:00:00,78.7,56.0,29.81,WNW,294,3.0,8.0,46,0.00,,,0.00,weatherlink.com 1.10,2013-06-14 21:00:00,
2013-06-14 17:14:00,78.4,55.0,29.82,West,276,0.0,5.0,45,0.00,,,0.00,weatherlink.com 1.10,2013-06-14 21:14:00,
2013-06-14 17:29:00,77.9,57.0,29.82,WNW,284,3.0,5.0,48,0.00,,,0.00,weatherlink.com 1.10,2013-06-14 21:29:00,
2013-06-14 17:44:00,77.6,54.0,29.82,West,279,0.0,8.0,44,0.00,,,0.00,weatherlink.com 1.10,2013-06-14 21:44:00,
2013-06-14 17:59:00,77.6,55.0,29.82,West,279,2.0,8.0,45,0.00,,,0.00,weatherlink.com 1.10,2013-06-14 21:59:00,
2013-06-14 18:14:00,78.1,55.0,29.82,WNW,294,5.0,11.0,45,0.00,,,0.00,weatherlink.com 1.10,2013-06-14 22:14:00,
2013-06-14 18:29:00,77.6,55.0,29.82,West,266,6.0,12.0,45,0.00,,,0.00,weatherlink.com 1.10,2013-06-14 22:29:00,
2013-06-14 18:43:00,77.4,56.0,29.83,West,271,3.0,11.0,48,0.00,,,0.00,weatherlink.com 1.10,2013-06-14 22:43:00,
2013-06-14 18:59:00,77.6,56.0,29.83,West,278,5.0,7.0,47,0.00,,,0.00,weatherlink.com 1.10,2013-06-14 22:59:00,
2013-06-14 19:14:00,77.5,56.0,29.84,WSW,256,2.0,6.0,47,0.00,,,0.00,weatherlink.com 1.10,2013-06-14 23:14:00,
2013-06-14 19:29:00,76.1,55.0,29.84,WNW,291,2.0,6.0,48,0.00,,,0.00,weatherlink.com 1.10,2013-06-14 23:29:00,
2013-06-14 19:43:00,75.3,56.0,29.84,WNW,302,4.0,4.0,52,0.00,,,0.00,weatherlink.com 1.10,2013-06-14 23:43:00,
2013-06-14 19:59:00,75.0,57.0,29.85,WNW,298,2.0,3.0,53,0.00,,,0.00,weatherlink.com 1.10,2013-06-14 23:59:00,
2013-06-14 20:14:00,73.9,56.0,29.85,West,267,1.0,6.0,54,0.00,,,0.00,weatherlink.com 1.10,2013-06-15 00:14:00,
2013-06-14 20:29:00,72.2,55.0,29.86,NW,306,2.0,3.0,56,0.00,,,0.00,weatherlink.com 1.10,2013-06-15 00:29:00,
2013-06-14 20:44:00,71.0,56.0,29.86,NW,305,0.0,1.0,59,0.00,,,0.00,weatherlink.com 1.10,2013-06-15 00:44:00,
2013-06-14 20:59:00,69.9,57.0,29.86,NW,306,1.0,1.0,63,0.00,,,0.00,weatherlink.com 1.10,2013-06-15 00:59:00,
2013-06-14 21:14:00,68.2,57.0,29.86,NW,305,0.0,0.0,67,0.00,,,0.00,weatherlink.com 1.10,2013-06-15 01:14:00,
2013-06-14 21:29:00,67.0,56.0,29.87,NW,305,0.0,1.0,69,0.00,,,0.00,weatherlink.com 1.10,2013-06-15 01:29:00,
2013-06-14 21:44:00,66.0,57.0,29.87,NW,305,0.0,0.0,73,0.00,,,0.00,weatherlink.com 1.10,2013-06-15 01:44:00,
2013-06-14 22:00:00,65.1,57.0,29.88,NW,305,0.0,0.0,75,0.00,,,0.00,weatherlink.com 1.10,2013-06-15 02:00:00,
2013-06-14 22:15:00,64.2,57.0,29.89,NW,305,0.0,1.0,77,0.00,,,0.00,weatherlink.com 1.10,2013-06-15 02:15:00,
2013-06-14 22:30:00,63.7,56.0,29.89,NW,305,0.0,1.0,77,0.00,,,0.00,weatherlink.com 1.10,2013-06-15 02:30:00,
2013-06-14 22:45:00,63.4,56.0,29.90,NW,305,1.0,2.0,78,0.00,,,0.00,weatherlink.com 1.10,2013-06-15 02:45:00,
2013-06-14 23:00:00,63.2,56.0,29.90,NW,306,0.0,1.0,78,0.00,,,0.00,weatherlink.com 1.10,2013-06-15 03:00:00,
2013-06-14 23:15:00,63.3,56.0,29.91,WNW,296,2.0,2.0,77,0.00,,,0.00,weatherlink.com 1.10,2013-06-15 03:15:00,
2013-06-14 23:30:00,63.4,56.0,29.91,WNW,296,0.0,1.0,77,0.00,,,0.00,weatherlink.com 1.10,2013-06-15 03:30:00,
2013-06-14 23:45:00,63.2,56.0,29.92,WNW,299,0.0,2.0,78,0.00,,,0.00,weatherlink.com 1.10,2013-06-15 03:45:00,